Tracking 19638 objects as of 19-Apr-2019
HD Live streaming from Space Station
objects crossing your sky now

METEOR 2-5 DEB

Track METEOR 2-5 DEB now!
10-day predictions


NORAD ID: 29291
Int'l Code: 1979-095Q
Perigee: 784.1 km
Apogee: 815.3 km
Inclination: 81.2 °
Period: 100.7 minutes
Semi major axis: 7170 km
RCS: 0.0146 m2 (small)
Launch date: October 31, 1979
Source: Commonwealth of Independent States (former USSR) (CIS)
Launch site: PLESETSK MISSILE AND SPACE COMPLEX (PKMTR)

Note: This is SATELLITE DEBRIS
aabbcc
Your satellite tracking list
Your tracking list is empty




NASA's NSSDC Master Catalog

Two Line Element Set (TLE):
1 29291U 79095Q   19102.50862252  .00001596  00000-0  61553-3 0  9990
2 29291  81.1899 179.6330 0021753 175.8792 184.2573 14.29738531659527
Source of the keplerian elements: AFSPC